* Astronomy

Members Login
Username 
 
Password 
    Remember Me  
Post Info TOPIC: Asteroid 2009 HR2


L

Posts: 131433
Date:
Asteroid 2009 HR2
Permalink  
 


Orbital elements:
2009 HR2 Earth MOID = 0.0273 AU
Epoch 2009 June 18.0 TT = JDT 2455000.5 MPC
M 55.70542 (2000.0) P Q
n 0.46861278 Peri. 95.73748 -0.54660975 -0.83323299
a 1.6415721 Node 27.90758 +0.68046083 -0.49995512
e 0.5498118 Incl. 10.25301 +0.48804798 -0.23615178
P 2.10 H 25.1 G 0.15 U 8

MPEC 2009 - H19


__________________
Page 1 of 1  sorted by
 
Quick Reply

Please log in to post quick replies.



Create your own FREE Forum
Report Abuse
Powered by ActiveBoard